TimeEST,TemperatureF,Dew PointF,Humidity,Sea Level PressureIn,VisibilityMPH,Wind Direction,Wind SpeedMPH,Gust SpeedMPH,PrecipitationIn,Events,Conditions,WindDirDegrees,DateUTC
12:15 AM,25.9,23.0,89,30.17,7.0,North,3.5,-,N/A,,Clear,350,2012-11-05 05:15:00
12:35 AM,26.2,23.5,90,30.18,10.0,North,4.6,-,N/A,,Clear,360,2012-11-05 05:35:00
12:55 AM,27.1,23.9,88,30.17,10.0,North,4.6,-,N/A,,Clear,360,2012-11-05 05:55:00
1:15 AM,27.5,24.3,88,30.17,10.0,North,5.8,-,N/A,,Clear,350,2012-11-05 06:15:00
1:35 AM,26.8,23.2,86,30.17,10.0,Calm,Calm,-,N/A,,Clear,0,2012-11-05 06:35:00
1:55 AM,26.1,22.8,88,30.18,10.0,Calm,Calm,-,N/A,,Clear,0,2012-11-05 06:55:00
2:15 AM,25.2,21.9,87,30.18,10.0,Calm,Calm,-,N/A,,Clear,0,2012-11-05 07:15:00
2:35 AM,25.2,22.1,88,30.18,10.0,Calm,Calm,-,N/A,,Clear,0,2012-11-05 07:35:00
2:55 AM,25.2,22.1,88,30.18,10.0,Calm,Calm,-,N/A,,Clear,0,2012-11-05 07:55:00
3:15 AM,24.6,21.7,89,30.18,10.0,Calm,Calm,-,N/A,,Clear,0,2012-11-05 08:15:00
3:35 AM,24.1,21.2,89,30.17,10.0,Calm,Calm,-,N/A,,Clear,0,2012-11-05 08:35:00
3:55 AM,24.1,21.2,89,30.17,10.0,Calm,Calm,-,N/A,,Clear,0,2012-11-05 08:55:00
4:15 AM,24.6,21.7,89,30.17,10.0,Calm,Calm,-,N/A,,Clear,0,2012-11-05 09:15:00
4:35 AM,23.9,21.0,89,30.18,10.0,Calm,Calm,-,N/A,,Clear,0,2012-11-05 09:35:00
4:55 AM,23.4,20.3,88,30.17,10.0,Calm,Calm,-,N/A,,Clear,0,2012-11-05 09:55:00
5:15 AM,23.2,20.3,89,30.17,7.0,Calm,Calm,-,N/A,,Clear,0,2012-11-05 10:15:00
5:35 AM,23.0,20.3,89,30.17,7.0,NNE,3.5,-,N/A,,Clear,30,2012-11-05 10:35:00
5:55 AM,23.0,20.3,89,30.17,7.0,Calm,Calm,-,N/A,,Clear,0,2012-11-05 10:55:00
6:15 AM,22.6,19.8,89,30.17,10.0,Calm,Calm,-,N/A,,Clear,0,2012-11-05 11:15:00
6:35 AM,22.5,19.4,88,30.17,10.0,Calm,Calm,-,N/A,,Clear,0,2012-11-05 11:35:00
6:55 AM,22.1,19.4,89,30.17,10.0,Calm,Calm,-,N/A,,Clear,0,2012-11-05 11:55:00
7:15 AM,21.9,18.9,88,30.18,7.0,Calm,Calm,-,N/A,,Clear,0,2012-11-05 12:15:00
7:35 AM,22.8,19.9,89,30.18,7.0,Calm,Calm,-,N/A,,Clear,0,2012-11-05 12:35:00
7:55 AM,23.5,20.7,89,30.18,7.0,Calm,Calm,-,N/A,,Clear,0,2012-11-05 12:55:00
8:15 AM,26.6,23.9,90,30.18,7.0,Calm,Calm,-,N/A,,Clear,0,2012-11-05 13:15:00
8:35 AM,29.3,26.4,89,30.18,5.0,Calm,Calm,-,N/A,,Clear,0,2012-11-05 13:35:00
8:55 AM,30.9,27.9,88,30.18,7.0,ENE,3.5,-,N/A,,Clear,70,2012-11-05 13:55:00
9:15 AM,32.0,28.8,88,30.18,7.0,East,4.6,-,N/A,,Clear,90,2012-11-05 14:15:00
9:35 AM,33.3,29.7,87,30.18,7.0,East,6.9,-,N/A,,Clear,90,2012-11-05 14:35:00
9:55 AM,35.1,30.2,82,30.17,10.0,East,4.6,-,N/A,,Scattered Clouds,100,2012-11-05 14:55:00
10:15 AM,36.7,30.4,78,30.17,10.0,ENE,6.9,-,N/A,,Scattered Clouds,70,2012-11-05 15:15:00
10:35 AM,37.8,29.3,72,30.17,10.0,East,9.2,-,N/A,,Clear,100,2012-11-05 15:35:00
10:55 AM,38.8,29.3,69,30.17,10.0,East,6.9,-,N/A,,Clear,80,2012-11-05 15:55:00
11:15 AM,39.2,28.6,66,30.17,10.0,East,6.9,-,N/A,,Clear,90,2012-11-05 16:15:00
11:35 AM,40.8,29.5,64,30.17,10.0,East,6.9,-,N/A,,Clear,80,2012-11-05 16:35:00
11:55 AM,41.7,29.3,61,30.17,10.0,East,5.8,-,N/A,,Clear,100,2012-11-05 16:55:00
12:15 PM,41.5,28.6,60,30.16,10.0,ESE,4.6,-,N/A,,Clear,110,2012-11-05 17:15:00
12:35 PM,41.0,28.4,61,30.15,10.0,ENE,6.9,-,N/A,,Scattered Clouds,70,2012-11-05 17:35:00
12:55 PM,42.1,28.8,59,30.15,10.0,ESE,4.6,-,N/A,,Clear,110,2012-11-05 17:55:00
1:15 PM,42.8,28.4,57,30.14,10.0,ENE,4.6,-,N/A,,Clear,70,2012-11-05 18:15:00
1:35 PM,43.7,28.4,55,30.13,10.0,ENE,5.8,-,N/A,,Clear,70,2012-11-05 18:35:00
1:55 PM,43.9,26.8,51,30.12,10.0,ENE,3.5,-,N/A,,Clear,70,2012-11-05 18:55:00
2:15 PM,44.6,28.9,54,30.12,10.0,ESE,6.9,-,N/A,,Clear,120,2012-11-05 19:15:00
2:35 PM,44.8,27.9,52,30.11,10.0,East,5.8,-,N/A,,Clear,90,2012-11-05 19:35:00
2:55 PM,45.7,28.0,50,30.11,10.0,ENE,5.8,-,N/A,,Clear,60,2012-11-05 19:55:00
3:15 PM,45.5,27.7,50,30.11,10.0,Calm,Calm,-,N/A,,Clear,0,2012-11-05 20:15:00
3:35 PM,46.0,27.3,48,30.11,10.0,East,5.8,-,N/A,,Clear,100,2012-11-05 20:35:00
3:55 PM,45.3,26.1,47,30.11,10.0,East,3.5,-,N/A,,Clear,80,2012-11-05 20:55:00
4:15 PM,45.5,26.4,47,30.11,10.0,ENE,5.8,-,N/A,,Clear,70,2012-11-05 21:15:00
4:35 PM,45.3,27.1,49,30.11,10.0,ESE,5.8,-,N/A,,Clear,110,2012-11-05 21:35:00
4:55 PM,43.9,27.0,51,30.11,10.0,East,4.6,-,N/A,,Clear,90,2012-11-05 21:55:00
5:15 PM,42.1,26.8,55,30.10,10.0,NE,4.6,-,N/A,,Clear,50,2012-11-05 22:15:00
5:35 PM,39.7,26.2,59,30.11,10.0,NE,4.6,-,N/A,,Clear,40,2012-11-05 22:35:00
5:55 PM,37.2,25.7,63,30.12,10.0,NNE,4.6,-,N/A,,Clear,30,2012-11-05 22:55:00
6:15 PM,36.1,25.5,65,30.12,10.0,NNE,3.5,-,N/A,,Clear,30,2012-11-05 23:15:00
6:35 PM,35.1,25.3,68,30.12,10.0,NE,3.5,-,N/A,,Clear,40,2012-11-05 23:35:00
6:55 PM,33.8,25.0,70,30.13,10.0,NE,3.5,-,N/A,,Clear,50,2012-11-05 23:55:00
7:15 PM,33.1,24.8,72,30.13,10.0,NNE,3.5,-,N/A,,Clear,30,2012-11-06 00:15:00
7:35 PM,32.7,25.0,73,30.13,10.0,NE,4.6,-,N/A,,Clear,50,2012-11-06 00:35:00
7:55 PM,32.2,24.6,74,30.12,7.0,NE,4.6,-,N/A,,Clear,50,2012-11-06 00:55:00
8:15 PM,32.2,24.4,73,30.13,7.0,NE,4.6,-,N/A,,Clear,50,2012-11-06 01:15:00
8:35 PM,30.6,23.7,76,30.13,10.0,NE,4.6,-,N/A,,Clear,50,2012-11-06 01:35:00
8:55 PM,32.0,25.0,75,30.13,10.0,NE,4.6,-,N/A,,Clear,50,2012-11-06 01:55:00
9:15 PM,30.2,23.9,77,30.14,10.0,NE,5.8,-,N/A,,Clear,50,2012-11-06 02:15:00
9:35 PM,32.7,25.7,75,30.13,10.0,ENE,5.8,-,N/A,,Clear,60,2012-11-06 02:35:00
9:55 PM,33.4,25.7,73,30.13,7.0,ENE,4.6,-,N/A,,Clear,60,2012-11-06 02:55:00
10:15 PM,33.1,25.3,73,30.12,7.0,East,3.5,-,N/A,,Clear,80,2012-11-06 03:15:00
10:35 PM,32.4,25.3,75,30.11,5.0,Calm,Calm,-,N/A,,Haze,0,2012-11-06 03:35:00
10:55 PM,32.0,24.8,75,30.11,7.0,NE,3.5,-,N/A,,Clear,50,2012-11-06 03:55:00
11:15 PM,30.0,23.7,77,30.11,10.0,NE,3.5,-,N/A,,Clear,50,2012-11-06 04:15:00
11:35 PM,28.4,23.4,81,30.10,10.0,East,3.5,-,N/A,,Clear,80,2012-11-06 04:35:00
11:55 PM,28.2,23.0,81,30.10,10.0,NE,4.6,-,N/A,,Clear,40,2012-11-06 04:55:00